Location: Izdebno
(52.6670°N, 16.2170°E)
Time: 04:47:40
(UTC+02:00)

A-11 Canister half - Pass Details

Date: 12 February 2023
Orbit: 1526 x 1682 km, 47.3° (Epoch: 25 March)

Event Time Altitude Azimuth Distance (km) Brightness Sun altitude
Rises 04:40:52 0° 241° (WSW) 4,686 - -24.3°
Reaches altitude 10° 04:43:58 10° 237° (WSW) 3,696 - -23.8°
Exits shadow 04:47:57 28° 227° (SW) 2,535 9.7 -23.2°
Maximum altitude 04:52:57 56° 163° (SSE) 1,768 9.3 -22.5°
Drops below altitude 10° 05:01:59 10° 89° (E) 3,722 12.2 -21.1°
Sets 05:05:07 0° 85° (E) 4,720 13.2 -20.6°
